Time,TemperatureF,DewpointF,PressureIn,WindDirection,WindDirectionDegrees,WindSpeedMPH,WindSpeedGustMPH,Humidity,HourlyPrecipIn,Conditions,Clouds,dailyrainin,SoftwareType,DateUTC
2013-04-16 00:00:00,58.2,48.5,30.10,South,187,0.0,8.0,70,0.00,,---,0.00,VWS V13.01,2013-04-16 04:00:00,
2013-04-16 00:05:00,58.1,48.4,30.10,South,171,0.0,2.0,70,0.00,,---,0.00,VWS V13.01,2013-04-16 04:05:00,
2013-04-16 00:10:00,58.1,48.8,30.10,South,179,1.0,7.0,71,0.00,,---,0.00,VWS V13.01,2013-04-16 04:10:00,
2013-04-16 00:15:00,58.0,48.7,30.10,SW,229,2.0,7.0,71,0.00,,---,0.00,VWS V13.01,2013-04-16 04:15:00,
2013-04-16 00:20:00,57.8,48.5,30.09,ENE,61,3.0,7.0,71,0.00,,---,0.00,VWS V13.01,2013-04-16 04:20:00,
2013-04-16 00:25:00,57.8,48.5,30.09,SSW,208,1.0,7.0,71,0.00,,---,0.00,VWS V13.01,2013-04-16 04:25:00,
2013-04-16 00:30:00,57.7,48.4,30.09,SE,143,3.0,3.0,71,0.00,,---,0.00,VWS V13.01,2013-04-16 04:30:00,
2013-04-16 00:35:00,57.7,48.8,30.09,WNW,284,0.0,5.0,72,0.00,,---,0.00,VWS V13.01,2013-04-16 04:35:00,
2013-04-16 00:40:00,57.4,48.5,30.09,West,278,4.0,5.0,72,0.00,,---,0.00,VWS V13.01,2013-04-16 04:40:00,
2013-04-16 00:45:00,57.0,48.4,30.09,West,274,0.0,5.0,73,0.00,,---,0.00,VWS V13.01,2013-04-16 04:45:00,
2013-04-16 00:50:00,56.7,48.2,30.09,West,274,0.0,5.0,73,0.00,,---,0.00,VWS V13.01,2013-04-16 04:50:00,
2013-04-16 00:55:00,56.5,48.3,30.09,West,273,4.0,5.0,74,0.00,,---,0.00,VWS V13.01,2013-04-16 04:55:00,
2013-04-16 01:00:00,56.6,48.8,30.09,SW,225,1.0,3.0,75,0.00,,---,0.00,VWS V13.01,2013-04-16 05:00:00,
2013-04-16 01:05:00,56.6,48.8,30.09,West,267,3.0,4.0,75,0.00,,---,0.00,VWS V13.01,2013-04-16 05:05:00,
2013-04-16 01:10:00,56.6,48.8,30.09,West,278,1.0,4.0,75,0.00,,---,0.00,VWS V13.01,2013-04-16 05:10:00,
2013-04-16 01:15:00,56.4,48.6,30.09,SW,232,3.0,6.0,75,0.00,,---,0.00,VWS V13.01,2013-04-16 05:15:00,
2013-04-16 01:20:00,56.3,48.8,30.09,West,263,3.0,6.0,76,0.00,,---,0.00,VWS V13.01,2013-04-16 05:20:00,
2013-04-16 01:25:00,56.3,48.8,30.09,WSW,248,1.0,6.0,76,0.00,,---,0.00,VWS V13.01,2013-04-16 05:25:00,
2013-04-16 01:30:00,56.1,49.0,30.09,SW,222,5.0,6.0,77,0.00,,---,0.00,VWS V13.01,2013-04-16 05:30:00,
2013-04-16 01:35:00,56.4,49.3,30.09,SSW,201,4.0,9.0,77,0.00,,---,0.00,VWS V13.01,2013-04-16 05:35:00,
2013-04-16 01:40:00,56.7,49.6,30.09,SSW,192,4.0,9.0,77,0.00,,---,0.00,VWS V13.01,2013-04-16 05:40:00,
2013-04-16 01:45:00,57.0,49.5,30.09,SE,140,2.0,9.0,76,0.00,,---,0.00,VWS V13.01,2013-04-16 05:45:00,
2013-04-16 01:50:00,57.3,49.8,30.08,SSE,157,3.0,9.0,76,0.00,,---,0.00,VWS V13.01,2013-04-16 05:50:00,
2013-04-16 01:55:00,57.3,49.5,30.08,South,178,1.0,9.0,75,0.00,,---,0.00,VWS V13.01,2013-04-16 05:55:00,
2013-04-16 02:00:00,57.3,49.8,30.08,SE,133,3.0,3.0,76,0.00,,---,0.00,VWS V13.01,2013-04-16 06:00:00,
2013-04-16 02:05:00,57.3,49.8,30.08,SE,146,4.0,6.0,76,0.00,,---,0.00,VWS V13.01,2013-04-16 06:05:00,
2013-04-16 02:10:00,57.3,49.8,30.08,SSE,154,2.0,6.0,76,0.00,,---,0.00,VWS V13.01,2013-04-16 06:10:00,
2013-04-16 02:15:00,57.3,49.8,30.08,SW,225,3.0,7.0,76,0.00,,---,0.00,VWS V13.01,2013-04-16 06:15:00,
2013-04-16 02:20:00,57.5,50.0,30.08,SSW,196,5.0,8.0,76,0.00,,---,0.00,VWS V13.01,2013-04-16 06:20:00,
2013-04-16 02:25:00,57.7,49.8,30.08,SE,142,2.0,9.0,75,0.00,,---,0.00,VWS V13.01,2013-04-16 06:25:00,
2013-04-16 02:30:00,57.7,49.8,30.08,SSE,165,2.0,5.0,75,0.00,,---,0.00,VWS V13.01,2013-04-16 06:30:00,
2013-04-16 02:35:00,57.7,49.8,30.07,South,173,2.0,9.0,75,0.00,,---,0.00,VWS V13.01,2013-04-16 06:35:00,
2013-04-16 02:40:00,57.8,49.9,30.07,SSE,151,2.0,9.0,75,0.00,,---,0.00,VWS V13.01,2013-04-16 06:40:00,
2013-04-16 02:45:00,57.8,49.9,30.07,South,180,2.0,9.0,75,0.00,,---,0.00,VWS V13.01,2013-04-16 06:45:00,
2013-04-16 02:50:00,57.9,50.0,30.07,SSW,210,4.0,9.0,75,0.00,,---,0.00,VWS V13.01,2013-04-16 06:50:00,
2013-04-16 02:55:00,57.8,49.9,30.07,South,171,2.0,9.0,75,0.00,,---,0.00,VWS V13.01,2013-04-16 06:55:00,
2013-04-16 03:00:00,57.7,49.8,30.07,ESE,110,3.0,3.0,75,0.00,,---,0.00,VWS V13.01,2013-04-16 07:00:00,
2013-04-16 03:05:00,57.5,49.7,30.07,SE,140,0.0,5.0,75,0.00,,---,0.00,VWS V13.01,2013-04-16 07:05:00,
2013-04-16 03:10:00,57.3,49.8,30.07,SE,134,1.0,7.0,76,0.00,,---,0.00,VWS V13.01,2013-04-16 07:10:00,
2013-04-16 03:15:00,57.4,49.9,30.06,SSE,159,3.0,8.0,76,0.00,,---,0.00,VWS V13.01,2013-04-16 07:15:00,
2013-04-16 03:20:00,57.4,49.9,30.06,SSW,203,5.0,8.0,76,0.00,,---,0.00,VWS V13.01,2013-04-16 07:20:00,
2013-04-16 03:25:00,57.4,49.9,30.06,SSW,192,3.0,8.0,76,0.00,,---,0.00,VWS V13.01,2013-04-16 07:25:00,
2013-04-16 03:30:00,57.4,49.9,30.07,SE,144,2.0,3.0,76,0.00,,---,0.00,VWS V13.01,2013-04-16 07:30:00,
2013-04-16 03:35:00,57.5,50.0,30.06,South,180,3.0,6.0,76,0.00,,---,0.00,VWS V13.01,2013-04-16 07:35:00,
2013-04-16 03:40:00,57.7,50.2,30.06,SSE,150,1.0,8.0,76,0.00,,---,0.00,VWS V13.01,2013-04-16 07:40:00,
2013-04-16 03:45:00,57.7,50.2,30.07,SSE,147,2.0,8.0,76,0.00,,---,0.00,VWS V13.01,2013-04-16 07:45:00,
2013-04-16 03:50:00,57.8,50.3,30.06,ESE,114,5.0,13.0,76,0.00,,---,0.00,VWS V13.01,2013-04-16 07:50:00,
2013-04-16 03:55:00,58.0,50.1,30.06,SE,135,7.0,14.0,75,0.00,,---,0.00,VWS V13.01,2013-04-16 07:55:00,
2013-04-16 04:00:00,58.1,50.2,30.07,SE,142,4.0,8.0,75,0.00,,---,0.00,VWS V13.01,2013-04-16 08:00:00,
2013-04-16 04:05:00,58.2,50.3,30.07,SE,126,6.0,10.0,75,0.00,,---,0.00,VWS V13.01,2013-04-16 08:05:00,
2013-04-16 04:10:00,58.1,50.2,30.06,SE,129,6.0,10.0,75,0.00,,---,0.00,VWS V13.01,2013-04-16 08:10:00,
2013-04-16 04:15:00,58.0,50.1,30.06,SE,145,3.0,10.0,75,0.00,,---,0.00,VWS V13.01,2013-04-16 08:15:00,
2013-04-16 04:20:00,58.1,50.2,30.06,ESE,108,5.0,14.0,75,0.00,,---,0.00,VWS V13.01,2013-04-16 08:20:00,
2013-04-16 04:25:00,58.2,50.3,30.07,SE,142,1.0,14.0,75,0.00,,---,0.00,VWS V13.01,2013-04-16 08:25:00,
2013-04-16 04:30:00,58.0,50.1,30.06,SE,126,3.0,5.0,75,0.00,,---,0.00,VWS V13.01,2013-04-16 08:30:00,
2013-04-16 04:35:00,58.0,50.1,30.05,SSE,167,4.0,11.0,75,0.00,,---,0.00,VWS V13.01,2013-04-16 08:35:00,
2013-04-16 04:40:00,58.0,50.1,30.06,South,190,6.0,11.0,75,0.00,,---,0.00,VWS V13.01,2013-04-16 08:40:00,
2013-04-16 04:45:00,58.1,50.2,30.05,South,190,4.0,11.0,75,0.00,,---,0.00,VWS V13.01,2013-04-16 08:45:00,
2013-04-16 04:50:00,58.1,50.2,30.05,SSE,150,5.0,11.0,75,0.00,,---,0.00,VWS V13.01,2013-04-16 08:50:00,
2013-04-16 04:55:00,58.2,50.3,30.06,South,188,0.0,11.0,75,0.00,,---,0.00,VWS V13.01,2013-04-16 08:55:00,
2013-04-16 05:00:00,58.1,50.2,30.06,SE,129,3.0,8.0,75,0.00,,---,0.00,VWS V13.01,2013-04-16 09:00:00,
2013-04-16 05:05:00,58.3,50.4,30.06,South,173,3.0,9.0,75,0.00,,---,0.00,VWS V13.01,2013-04-16 09:05:00,
2013-04-16 05:10:00,58.4,50.5,30.06,South,175,1.0,9.0,75,0.00,,---,0.00,VWS V13.01,2013-04-16 09:10:00,
2013-04-16 05:15:00,58.3,50.4,30.06,SE,142,6.0,9.0,75,0.00,,---,0.00,VWS V13.01,2013-04-16 09:15:00,
2013-04-16 05:20:00,58.4,50.5,30.06,SE,138,4.0,16.0,75,0.00,,---,0.00,VWS V13.01,2013-04-16 09:20:00,
2013-04-16 05:25:00,58.4,50.5,30.06,SE,132,3.0,16.0,75,0.00,,---,0.00,VWS V13.01,2013-04-16 09:25:00,
2013-04-16 05:30:00,58.2,50.3,30.06,SE,141,6.0,6.0,75,0.00,,---,0.00,VWS V13.01,2013-04-16 09:30:00,
2013-04-16 05:35:00,58.2,50.3,30.07,SSE,149,3.0,12.0,75,0.00,,---,0.00,VWS V13.01,2013-04-16 09:35:00,
2013-04-16 05:40:00,58.3,50.4,30.07,ESE,109,3.0,12.0,75,0.00,,---,0.00,VWS V13.01,2013-04-16 09:40:00,
2013-04-16 05:45:00,58.1,50.2,30.07,SE,136,5.0,12.0,75,0.00,,---,0.00,VWS V13.01,2013-04-16 09:45:00,
2013-04-16 05:50:00,58.0,50.5,30.07,SW,219,3.0,12.0,76,0.00,,---,0.00,VWS V13.01,2013-04-16 09:50:00,
2013-04-16 05:55:00,58.2,50.3,30.07,South,186,4.0,12.0,75,0.00,,---,0.00,VWS V13.01,2013-04-16 09:55:00,
2013-04-16 06:00:00,58.5,50.6,30.07,South,176,6.0,7.0,75,0.00,,---,0.00,VWS V13.01,2013-04-16 10:00:00,
2013-04-16 06:05:00,58.6,50.3,30.08,SE,144,2.0,9.0,74,0.00,,---,0.00,VWS V13.01,2013-04-16 10:05:00,
2013-04-16 06:10:00,58.7,50.5,30.08,South,182,6.0,9.0,74,0.00,,---,0.00,VWS V13.01,2013-04-16 10:10:00,
2013-04-16 06:15:00,58.8,50.5,30.08,South,173,2.0,9.0,74,0.00,,---,0.00,VWS V13.01,2013-04-16 10:15:00,
2013-04-16 06:20:00,58.8,50.5,30.08,SSE,159,3.0,9.0,74,0.00,,---,0.00,VWS V13.01,2013-04-16 10:20:00,
2013-04-16 06:25:00,58.9,50.6,30.08,SSW,209,3.0,10.0,74,0.00,,---,0.00,VWS V13.01,2013-04-16 10:25:00,
2013-04-16 06:30:00,59.0,50.7,30.09,South,190,6.0,6.0,74,0.00,,---,0.00,VWS V13.01,2013-04-16 10:30:00,
2013-04-16 06:35:00,59.2,50.9,30.09,SW,225,8.0,8.0,74,0.00,,---,0.00,VWS V13.01,2013-04-16 10:35:00,
2013-04-16 06:40:00,59.4,50.8,30.09,SSW,202,3.0,10.0,73,0.00,,---,0.00,VWS V13.01,2013-04-16 10:40:00,
2013-04-16 06:45:00,59.5,50.8,30.09,SSW,192,7.0,12.0,73,0.00,,---,0.00,VWS V13.01,2013-04-16 10:45:00,
2013-04-16 06:50:00,59.6,51.0,30.09,SSE,167,3.0,12.0,73,0.00,,---,0.00,VWS V13.01,2013-04-16 10:50:00,
2013-04-16 06:55:00,59.7,51.0,30.10,SSE,165,3.0,12.0,73,0.00,,---,0.00,VWS V13.01,2013-04-16 10:55:00,
2013-04-16 07:00:00,59.7,51.0,30.09,SSW,212,3.0,6.0,73,0.00,,---,0.00,VWS V13.01,2013-04-16 11:00:00,
2013-04-16 07:05:00,59.8,51.1,30.09,South,184,10.0,10.0,73,0.00,,---,0.00,VWS V13.01,2013-04-16 11:05:00,
2013-04-16 07:10:00,59.9,50.9,30.09,South,182,3.0,11.0,72,0.00,,---,0.00,VWS V13.01,2013-04-16 11:10:00,
2013-04-16 07:15:00,60.0,51.0,30.09,South,180,5.0,11.0,72,0.00,,---,0.00,VWS V13.01,2013-04-16 11:15:00,
2013-04-16 07:20:00,60.0,51.0,30.09,SSW,198,5.0,11.0,72,0.00,,---,0.00,VWS V13.01,2013-04-16 11:20:00,
2013-04-16 07:25:00,60.1,51.1,30.10,SSW,196,6.0,11.0,72,0.00,,---,0.00,VWS V13.01,2013-04-16 11:25:00,
2013-04-16 07:30:00,60.1,51.1,30.09,SSW,192,7.0,8.0,72,0.00,,---,0.00,VWS V13.01,2013-04-16 11:30:00,
2013-04-16 07:35:00,60.2,51.2,30.09,SE,126,0.0,8.0,72,0.00,,---,0.00,VWS V13.01,2013-04-16 11:35:00,
2013-04-16 07:40:00,60.2,51.2,30.10,SW,214,4.0,10.0,72,0.00,,---,0.00,VWS V13.01,2013-04-16 11:40:00,
2013-04-16 07:45:00,60.6,51.2,30.10,South,190,7.0,10.0,71,0.00,,---,0.00,VWS V13.01,2013-04-16 11:45:00,
2013-04-16 07:50:00,61.0,51.5,30.10,South,178,6.0,11.0,71,0.00,,---,0.00,VWS V13.01,2013-04-16 11:50:00,
2013-04-16 07:55:00,61.3,51.5,30.10,SSE,165,2.0,11.0,70,0.00,,---,0.00,VWS V13.01,2013-04-16 11:55:00,
2013-04-16 08:00:00,61.6,51.7,30.10,SSW,198,3.0,4.0,70,0.00,,---,0.00,VWS V13.01,2013-04-16 12:00:00,
2013-04-16 08:05:00,62.0,52.1,30.10,South,186,4.0,8.0,70,0.00,,---,0.00,VWS V13.01,2013-04-16 12:05:00,
2013-04-16 08:10:00,62.7,52.0,30.10,SE,146,4.0,11.0,68,0.00,,---,0.00,VWS V13.01,2013-04-16 12:10:00,
2013-04-16 08:15:00,63.2,52.5,30.11,South,169,3.0,11.0,68,0.00,,---,0.00,VWS V13.01,2013-04-16 12:15:00,
2013-04-16 08:20:00,63.5,52.4,30.11,SSW,199,6.0,11.0,67,0.00,,---,0.00,VWS V13.01,2013-04-16 12:20:00,
2013-04-16 08:25:00,63.9,52.3,30.11,South,174,1.0,14.0,66,0.00,,---,0.00,VWS V13.01,2013-04-16 12:25:00,
2013-04-16 08:30:00,64.3,52.7,30.10,South,175,4.0,7.0,66,0.00,,---,0.00,VWS V13.01,2013-04-16 12:30:00,
2013-04-16 08:35:00,64.6,52.6,30.10,South,188,3.0,7.0,65,0.00,,---,0.00,VWS V13.01,2013-04-16 12:35:00,
2013-04-16 08:40:00,64.9,52.9,30.10,SSE,153,2.0,7.0,65,0.00,,---,0.00,VWS V13.01,2013-04-16 12:40:00,
2013-04-16 08:45:00,65.3,52.8,30.10,South,188,7.0,13.0,64,0.00,,---,0.00,VWS V13.01,2013-04-16 12:45:00,
2013-04-16 08:50:00,65.9,53.4,30.10,SSW,198,7.0,17.0,64,0.00,,---,0.00,VWS V13.01,2013-04-16 12:50:00,
2013-04-16 08:55:00,66.3,53.3,30.11,South,178,8.0,19.0,63,0.00,,---,0.00,VWS V13.01,2013-04-16 12:55:00,
2013-04-16 09:00:00,66.5,53.1,30.11,SSW,192,5.0,9.0,62,0.00,,---,0.00,VWS V13.01,2013-04-16 13:00:00,
2013-04-16 09:05:00,66.5,53.5,30.11,SSW,203,5.0,10.0,63,0.00,,---,0.00,VWS V13.01,2013-04-16 13:05:00,
2013-04-16 09:10:00,66.5,53.1,30.11,SSW,201,8.0,13.0,62,0.00,,---,0.00,VWS V13.01,2013-04-16 13:10:00,
2013-04-16 09:15:00,66.5,53.1,30.11,SSW,198,7.0,14.0,62,0.00,,---,0.00,VWS V13.01,2013-04-16 13:15:00,
2013-04-16 09:20:00,66.5,53.1,30.11,SW,221,10.0,14.0,62,0.00,,---,0.00,VWS V13.01,2013-04-16 13:20:00,
2013-04-16 09:25:00,66.4,53.4,30.11,SSW,202,7.0,14.0,63,0.00,,---,0.00,VWS V13.01,2013-04-16 13:25:00,
2013-04-16 09:30:00,66.4,53.4,30.11,SW,236,7.0,12.0,63,0.00,,---,0.00,VWS V13.01,2013-04-16 13:30:00,
2013-04-16 09:35:00,66.3,53.3,30.11,South,185,4.0,14.0,63,0.00,,---,0.00,VWS V13.01,2013-04-16 13:35:00,
2013-04-16 09:40:00,66.2,53.7,30.11,SSW,199,6.0,14.0,64,0.00,,---,0.00,VWS V13.01,2013-04-16 13:40:00,
2013-04-16 09:45:00,66.2,53.2,30.12,SSW,211,7.0,14.0,63,0.00,,---,0.00,VWS V13.01,2013-04-16 13:45:00,
2013-04-16 09:50:00,66.2,53.7,30.12,SW,221,9.0,14.0,64,0.00,,---,0.00,VWS V13.01,2013-04-16 13:50:00,
2013-04-16 09:55:00,66.2,53.7,30.12,SW,235,2.0,14.0,64,0.00,,---,0.00,VWS V13.01,2013-04-16 13:55:00,
2013-04-16 10:00:00,66.3,54.2,30.11,SW,225,6.0,8.0,65,0.00,,---,0.00,VWS V13.01,2013-04-16 14:00:00,
2013-04-16 10:05:00,66.6,54.1,30.12,SW,227,4.0,8.0,64,0.00,,---,0.00,VWS V13.01,2013-04-16 14:05:00,
2013-04-16 10:10:00,66.8,54.7,30.12,SW,223,3.0,8.0,65,0.00,,---,0.00,VWS V13.01,2013-04-16 14:10:00,
2013-04-16 10:15:00,66.9,54.8,30.12,SW,222,6.0,8.0,65,0.00,,---,0.00,VWS V13.01,2013-04-16 14:15:00,
2013-04-16 10:20:00,67.0,54.4,30.11,SSW,213,7.0,9.0,64,0.00,,---,0.00,VWS V13.01,2013-04-16 14:20:00,
2013-04-16 10:25:00,67.6,55.0,30.11,SSW,194,5.0,14.0,64,0.00,,---,0.00,VWS V13.01,2013-04-16 14:25:00,
2013-04-16 10:30:00,68.0,55.4,30.11,SW,214,6.0,8.0,64,0.00,,---,0.00,VWS V13.01,2013-04-16 14:30:00,
2013-04-16 10:35:00,68.1,54.6,30.11,SSW,213,9.0,13.0,62,0.00,,---,0.00,VWS V13.01,2013-04-16 14:35:00,
2013-04-16 10:40:00,68.3,55.2,30.11,SW,222,4.0,13.0,63,0.00,,---,0.00,VWS V13.01,2013-04-16 14:40:00,
2013-04-16 10:45:00,68.5,55.0,30.11,SSW,210,7.0,13.0,62,0.00,,---,0.00,VWS V13.01,2013-04-16 14:45:00,
2013-04-16 10:50:00,68.7,55.2,30.12,SW,219,8.0,14.0,62,0.00,,---,0.00,VWS V13.01,2013-04-16 14:50:00,
2013-04-16 10:55:00,69.0,55.5,30.12,SW,224,11.0,19.0,62,0.00,,---,0.00,VWS V13.01,2013-04-16 14:55:00,
2013-04-16 11:00:00,69.3,55.7,30.12,SSW,199,12.0,14.0,62,0.00,,---,0.00,VWS V13.01,2013-04-16 15:00:00,
2013-04-16 11:05:00,69.7,56.1,30.12,SW,229,6.0,16.0,62,0.00,,---,0.00,VWS V13.01,2013-04-16 15:05:00,
2013-04-16 11:10:00,70.1,56.5,30.12,SSW,212,16.0,16.0,62,0.00,,---,0.00,VWS V13.01,2013-04-16 15:10:00,
2013-04-16 11:15:00,70.5,55.5,30.12,WSW,245,15.0,20.0,59,0.00,,---,0.00,VWS V13.01,2013-04-16 15:15:00,
2013-04-16 11:20:00,70.6,56.1,30.12,SSW,201,5.0,20.0,60,0.00,,---,0.00,VWS V13.01,2013-04-16 15:20:00,
2013-04-16 11:25:00,71.2,56.6,30.12,SW,234,5.0,20.0,60,0.00,,---,0.00,VWS V13.01,2013-04-16 15:25:00,
2013-04-16 11:30:00,71.6,56.5,30.12,SW,229,8.0,22.0,59,0.00,,---,0.00,VWS V13.01,2013-04-16 15:30:00,
2013-04-16 11:35:00,71.4,56.3,30.12,SW,227,16.0,22.0,59,0.00,,---,0.00,VWS V13.01,2013-04-16 15:35:00,
2013-04-16 11:40:00,71.3,56.2,30.12,SSW,209,7.0,22.0,59,0.00,,---,0.00,VWS V13.01,2013-04-16 15:40:00,
2013-04-16 11:45:00,70.9,55.9,30.12,SW,225,9.0,23.0,59,0.00,,---,0.00,VWS V13.01,2013-04-16 15:45:00,
2013-04-16 11:50:00,71.1,56.5,30.12,WSW,252,12.0,23.0,60,0.00,,---,0.00,VWS V13.01,2013-04-16 15:50:00,
2013-04-16 11:55:00,71.6,57.0,30.12,SSW,210,10.0,23.0,60,0.00,,---,0.00,VWS V13.01,2013-04-16 15:55:00,
2013-04-16 12:00:00,71.6,56.5,30.12,SW,227,12.0,15.0,59,0.00,,---,0.00,VWS V13.01,2013-04-16 16:00:00,
2013-04-16 12:05:00,71.6,56.5,30.11,SSW,200,12.0,20.0,59,0.00,,---,0.00,VWS V13.01,2013-04-16 16:05:00,
2013-04-16 12:10:00,72.0,56.4,30.11,SSW,209,7.0,20.0,58,0.00,,---,0.00,VWS V13.01,2013-04-16 16:10:00,
2013-04-16 12:15:00,72.4,57.3,30.11,SSW,199,7.0,20.0,59,0.00,,---,0.00,VWS V13.01,2013-04-16 16:15:00,
2013-04-16 12:20:00,72.6,57.0,30.12,WSW,248,9.0,20.0,58,0.00,,---,0.00,VWS V13.01,2013-04-16 16:20:00,
2013-04-16 12:25:00,72.7,57.1,30.11,South,188,10.0,20.0,58,0.00,,---,0.00,VWS V13.01,2013-04-16 16:25:00,
2013-04-16 12:30:00,73.1,57.5,30.11,SSW,209,13.0,15.0,58,0.00,,---,0.00,VWS V13.01,2013-04-16 16:30:00,
2013-04-16 12:36:00,73.4,57.7,30.11,SW,234,10.0,17.0,58,0.00,,---,0.00,VWS V13.01,2013-04-16 16:36:00,
2013-04-16 12:41:00,73.8,58.1,30.11,SW,236,15.0,18.0,58,0.00,,---,0.00,VWS V13.01,2013-04-16 16:41:00,
2013-04-16 12:45:00,73.5,57.3,30.11,SW,236,6.0,21.0,57,0.00,,---,0.00,VWS V13.01,2013-04-16 16:45:00,
2013-04-16 12:50:00,73.8,58.1,30.11,South,178,9.0,21.0,58,0.00,,---,0.00,VWS V13.01,2013-04-16 16:50:00,
2013-04-16 12:55:00,74.1,58.4,30.11,West,276,8.0,21.0,58,0.00,,---,0.00,VWS V13.01,2013-04-16 16:55:00,
2013-04-16 13:00:00,74.3,58.1,30.11,SSW,197,11.0,20.0,57,0.00,,---,0.00,VWS V13.01,2013-04-16 17:00:00,
2013-04-16 13:05:00,74.6,58.9,30.11,SSW,196,5.0,20.0,58,0.00,,---,0.00,VWS V13.01,2013-04-16 17:05:00,
2013-04-16 13:11:00,74.8,57.6,30.11,West,265,11.0,20.0,55,0.00,,---,0.00,VWS V13.01,2013-04-16 17:11:00,
2013-04-16 13:15:00,74.4,57.7,30.10,SW,218,9.0,20.0,56,0.00,,---,0.00,VWS V13.01,2013-04-16 17:15:00,
2013-04-16 13:21:00,74.6,57.9,30.10,SSW,207,6.0,20.0,56,0.00,,---,0.00,VWS V13.01,2013-04-16 17:21:00,
2013-04-16 13:26:00,74.6,57.9,30.10,WSW,238,11.0,20.0,56,0.00,,---,0.00,VWS V13.01,2013-04-16 17:26:00,
2013-04-16 13:31:00,74.7,58.5,30.09,WSW,256,11.0,15.0,57,0.00,,---,0.00,VWS V13.01,2013-04-16 17:31:00,
2013-04-16 13:36:00,75.4,58.6,30.09,SW,227,8.0,16.0,56,0.00,,---,0.00,VWS V13.01,2013-04-16 17:36:00,
2013-04-16 13:41:00,75.6,58.3,30.09,WSW,244,9.0,16.0,55,0.00,,---,0.00,VWS V13.01,2013-04-16 17:41:00,
2013-04-16 13:46:00,75.3,58.0,30.09,SSW,207,10.0,16.0,55,0.00,,---,0.00,VWS V13.01,2013-04-16 17:46:00,
2013-04-16 13:51:00,75.5,58.2,30.08,SSW,201,7.0,16.0,55,0.00,,---,0.00,VWS V13.01,2013-04-16 17:51:00,
2013-04-16 13:56:00,75.7,57.9,30.08,SW,235,6.0,16.0,54,0.00,,---,0.00,VWS V13.01,2013-04-16 17:56:00,
2013-04-16 14:01:00,76.0,58.7,30.08,SW,222,13.0,13.0,55,0.00,,---,0.00,VWS V13.01,2013-04-16 18:01:00,
2013-04-16 14:06:00,76.0,58.2,30.08,WSW,237,9.0,15.0,54,0.00,,---,0.00,VWS V13.01,2013-04-16 18:06:00,
2013-04-16 14:11:00,75.9,58.1,30.08,South,191,8.0,16.0,54,0.00,,---,0.00,VWS V13.01,2013-04-16 18:11:00,
2013-04-16 14:16:00,76.2,58.4,30.08,SSW,211,10.0,16.0,54,0.00,,---,0.00,VWS V13.01,2013-04-16 18:16:00,
2013-04-16 14:21:00,76.3,57.9,30.08,SW,226,9.0,17.0,53,0.00,,---,0.00,VWS V13.01,2013-04-16 18:21:00,
2013-04-16 14:26:00,76.0,58.7,30.08,SSW,194,7.0,17.0,55,0.00,,---,0.00,VWS V13.01,2013-04-16 18:26:00,
2013-04-16 14:31:00,76.0,58.7,30.07,SW,224,7.0,12.0,55,0.00,,---,0.00,VWS V13.01,2013-04-16 18:31:00,
2013-04-16 14:36:00,76.3,59.0,30.07,SW,216,7.0,13.0,55,0.00,,---,0.00,VWS V13.01,2013-04-16 18:36:00,
2013-04-16 14:41:00,76.5,58.1,30.07,SW,227,8.0,15.0,53,0.00,,---,0.00,VWS V13.01,2013-04-16 18:41:00,
2013-04-16 14:46:00,76.7,59.3,30.07,SSW,202,3.0,15.0,55,0.00,,---,0.00,VWS V13.01,2013-04-16 18:46:00,
2013-04-16 14:51:00,77.0,58.6,30.07,SW,214,11.0,15.0,53,0.00,,---,0.00,VWS V13.01,2013-04-16 18:51:00,
2013-04-16 14:56:00,76.8,57.9,30.06,SW,215,10.0,15.0,52,0.00,,---,0.00,VWS V13.01,2013-04-16 18:56:00,
2013-04-16 15:01:00,76.4,58.0,30.06,SW,223,6.0,14.0,53,0.00,,---,0.00,VWS V13.01,2013-04-16 19:01:00,
2013-04-16 15:06:00,76.2,58.4,30.06,South,188,11.0,17.0,54,0.00,,---,0.00,VWS V13.01,2013-04-16 19:06:00,
2013-04-16 15:11:00,76.2,58.4,30.05,SW,223,11.0,17.0,54,0.00,,---,0.00,VWS V13.01,2013-04-16 19:11:00,
2013-04-16 15:16:00,76.3,59.0,30.04,SW,225,5.0,17.0,55,0.00,,---,0.00,VWS V13.01,2013-04-16 19:16:00,
2013-04-16 15:21:00,76.4,59.1,30.03,SSW,208,7.0,17.0,55,0.00,,---,0.00,VWS V13.01,2013-04-16 19:21:00,
2013-04-16 15:26:00,76.8,59.4,30.03,SSW,200,7.0,17.0,55,0.00,,---,0.00,VWS V13.01,2013-04-16 19:26:00,
2013-04-16 15:31:00,77.0,59.1,30.03,WSW,250,7.0,11.0,54,0.00,,---,0.00,VWS V13.01,2013-04-16 19:31:00,
2013-04-16 15:36:00,77.1,59.7,30.03,SSW,212,5.0,14.0,55,0.00,,---,0.00,VWS V13.01,2013-04-16 19:36:00,
2013-04-16 15:41:00,77.5,59.0,30.02,South,189,9.0,14.0,53,0.00,,---,0.00,VWS V13.01,2013-04-16 19:41:00,
2013-04-16 15:46:00,77.6,59.1,30.02,SW,221,6.0,16.0,53,0.00,,---,0.00,VWS V13.01,2013-04-16 19:46:00,
2013-04-16 15:51:00,78.0,59.5,30.02,SSW,211,11.0,16.0,53,0.00,,---,0.00,VWS V13.01,2013-04-16 19:51:00,
2013-04-16 15:56:00,77.9,58.9,30.02,SSW,198,5.0,16.0,52,0.00,,---,0.00,VWS V13.01,2013-04-16 19:56:00,
2013-04-16 16:01:00,78.0,59.5,30.01,SSW,194,7.0,8.0,53,0.00,,---,0.00,VWS V13.01,2013-04-16 20:01:00,
2013-04-16 16:06:00,78.1,59.6,30.01,SW,230,8.0,12.0,53,0.00,,---,0.00,VWS V13.01,2013-04-16 20:06:00,
2013-04-16 16:11:00,78.0,60.0,30.01,SW,221,7.0,14.0,54,0.00,,---,0.00,VWS V13.01,2013-04-16 20:11:00,
2013-04-16 16:16:00,78.3,59.8,30.01,SW,228,6.0,14.0,53,0.00,,---,0.00,VWS V13.01,2013-04-16 20:16:00,
2013-04-16 16:21:00,78.4,59.3,30.01,SSW,197,7.0,14.0,52,0.00,,---,0.00,VWS V13.01,2013-04-16 20:21:00,
2013-04-16 16:26:00,78.5,59.4,30.01,SW,222,11.0,14.0,52,0.00,,---,0.00,VWS V13.01,2013-04-16 20:26:00,
2013-04-16 16:31:00,78.6,59.0,30.02,SW,227,5.0,11.0,51,0.00,,---,0.00,VWS V13.01,2013-04-16 20:31:00,
2013-04-16 16:36:00,78.6,59.5,30.02,SW,236,6.0,11.0,52,0.00,,---,0.00,VWS V13.01,2013-04-16 20:36:00,
2013-04-16 16:41:00,78.7,59.6,30.01,West,259,2.0,11.0,52,0.00,,---,0.00,VWS V13.01,2013-04-16 20:41:00,
2013-04-16 16:46:00,78.7,59.1,30.01,SW,229,4.0,11.0,51,0.00,,---,0.00,VWS V13.01,2013-04-16 20:46:00,
2013-04-16 16:51:00,78.7,58.5,30.01,SW,219,7.0,15.0,50,0.00,,---,0.00,VWS V13.01,2013-04-16 20:51:00,
2013-04-16 16:56:00,78.9,58.7,30.01,WSW,246,9.0,15.0,50,0.00,,---,0.00,VWS V13.01,2013-04-16 20:56:00,
2013-04-16 17:01:00,78.7,58.5,30.01,West,271,6.0,13.0,50,0.00,,---,0.00,VWS V13.01,2013-04-16 21:01:00,
2013-04-16 17:07:00,78.7,59.1,30.01,SW,229,7.0,13.0,51,0.00,,---,0.00,VWS V13.01,2013-04-16 21:07:00,
2013-04-16 17:12:00,78.9,59.2,30.01,SW,225,5.0,13.0,51,0.00,,---,0.00,VWS V13.01,2013-04-16 21:12:00,
2013-04-16 17:17:00,79.4,59.2,30.01,SW,225,8.0,13.0,50,0.00,,---,0.00,VWS V13.01,2013-04-16 21:17:00,
2013-04-16 17:22:00,79.7,58.9,30.01,WSW,257,3.0,13.0,49,0.00,,---,0.00,VWS V13.01,2013-04-16 21:22:00,
2013-04-16 17:27:00,80.0,59.1,30.01,WSW,251,6.0,13.0,49,0.00,,---,0.00,VWS V13.01,2013-04-16 21:27:00,
2013-04-16 17:32:00,80.2,59.9,30.01,SW,219,8.0,13.0,50,0.00,,---,0.00,VWS V13.01,2013-04-16 21:32:00,
2013-04-16 17:37:00,80.3,57.7,30.01,SW,217,9.0,16.0,46,0.00,,---,0.00,VWS V13.01,2013-04-16 21:37:00,
2013-04-16 17:42:00,79.8,58.4,30.01,WSW,238,10.0,16.0,48,0.00,,---,0.00,VWS V13.01,2013-04-16 21:42:00,
2013-04-16 17:47:00,79.3,57.9,30.01,WSW,254,16.0,17.0,48,0.00,,---,0.00,VWS V13.01,2013-04-16 21:47:00,
2013-04-16 17:52:00,79.6,58.2,30.01,SW,222,12.0,18.0,48,0.00,,---,0.00,VWS V13.01,2013-04-16 21:52:00,
2013-04-16 17:57:00,79.8,57.2,30.02,WSW,239,7.0,19.0,46,0.00,,---,0.00,VWS V13.01,2013-04-16 21:57:00,
2013-04-16 18:02:00,79.9,57.9,30.02,SW,217,12.0,18.0,47,0.00,,---,0.00,VWS V13.01,2013-04-16 22:02:00,
2013-04-16 18:07:00,79.8,58.4,30.02,SW,236,5.0,18.0,48,0.00,,---,0.00,VWS V13.01,2013-04-16 22:07:00,
2013-04-16 18:12:00,79.7,57.7,30.02,WSW,254,4.0,18.0,47,0.00,,---,0.00,VWS V13.01,2013-04-16 22:12:00,
2013-04-16 18:17:00,79.8,58.4,30.01,WSW,249,5.0,18.0,48,0.00,,---,0.00,VWS V13.01,2013-04-16 22:17:00,
2013-04-16 18:22:00,79.9,58.5,30.01,West,264,2.0,18.0,48,0.00,,---,0.00,VWS V13.01,2013-04-16 22:22:00,
2013-04-16 18:27:00,79.8,59.0,30.01,WNW,302,7.0,18.0,49,0.00,,---,0.00,VWS V13.01,2013-04-16 22:27:00,
2013-04-16 18:32:00,79.7,58.3,30.01,West,261,6.0,13.0,48,0.00,,---,0.00,VWS V13.01,2013-04-16 22:32:00,
2013-04-16 18:37:00,79.5,58.1,30.01,WSW,254,4.0,13.0,48,0.00,,---,0.00,VWS V13.01,2013-04-16 22:37:00,
2013-04-16 18:42:00,79.4,58.6,30.01,WSW,241,5.0,13.0,49,0.00,,---,0.00,VWS V13.01,2013-04-16 22:42:00,
2013-04-16 18:47:00,79.3,58.5,30.01,West,261,9.0,13.0,49,0.00,,---,0.00,VWS V13.01,2013-04-16 22:47:00,
2013-04-16 18:52:00,79.3,58.5,30.01,WSW,242,2.0,13.0,49,0.00,,---,0.00,VWS V13.01,2013-04-16 22:52:00,
2013-04-16 18:57:00,79.3,58.5,30.01,West,271,4.0,13.0,49,0.00,,---,0.00,VWS V13.01,2013-04-16 22:57:00,
2013-04-16 19:02:00,78.9,58.1,30.01,WNW,292,1.0,3.0,49,0.00,,---,0.00,VWS V13.01,2013-04-16 23:02:00,
2013-04-16 19:07:00,78.4,58.2,30.01,West,271,6.0,8.0,50,0.00,,---,0.00,VWS V13.01,2013-04-16 23:07:00,
2013-04-16 19:12:00,78.0,57.9,30.01,West,268,1.0,9.0,50,0.00,,---,0.00,VWS V13.01,2013-04-16 23:12:00,
2013-04-16 19:17:00,77.5,57.4,30.01,WNW,284,1.0,9.0,50,0.00,,---,0.00,VWS V13.01,2013-04-16 23:17:00,
2013-04-16 19:22:00,77.1,57.6,30.02,West,277,1.0,9.0,51,0.00,,---,0.00,VWS V13.01,2013-04-16 23:22:00,
2013-04-16 19:27:00,76.7,57.8,30.01,WNW,293,2.0,9.0,52,0.00,,---,0.00,VWS V13.01,2013-04-16 23:27:00,
2013-04-16 19:32:00,76.5,57.6,30.01,WNW,286,0.0,4.0,52,0.00,,---,0.00,VWS V13.01,2013-04-16 23:32:00,
2013-04-16 19:37:00,76.3,57.9,30.01,WSW,256,3.0,5.0,53,0.00,,---,0.00,VWS V13.01,2013-04-16 23:37:00,
2013-04-16 19:42:00,76.0,57.7,30.01,West,268,1.0,5.0,53,0.00,,---,0.00,VWS V13.01,2013-04-16 23:42:00,
2013-04-16 19:47:00,75.7,57.9,30.01,West,280,1.0,5.0,54,0.00,,---,0.00,VWS V13.01,2013-04-16 23:47:00,
2013-04-16 19:52:00,75.3,57.5,30.01,West,280,1.0,5.0,54,0.00,,---,0.00,VWS V13.01,2013-04-16 23:52:00,
2013-04-16 19:57:00,75.0,57.8,30.02,WNW,294,0.0,5.0,55,0.00,,---,0.00,VWS V13.01,2013-04-16 23:57:00,
2013-04-16 20:02:00,74.7,58.0,30.02,WNW,300,2.0,3.0,56,0.00,,---,0.00,VWS V13.01,2013-04-17 00:02:00,
2013-04-16 20:07:00,74.4,57.7,30.02,WNW,301,0.0,3.0,56,0.00,,---,0.00,VWS V13.01,2013-04-17 00:07:00,
2013-04-16 20:12:00,74.1,57.9,30.02,WNW,301,0.0,3.0,57,0.00,,---,0.00,VWS V13.01,2013-04-17 00:12:00,
2013-04-16 20:17:00,73.7,57.5,30.02,WNW,301,0.0,3.0,57,0.00,,---,0.00,VWS V13.01,2013-04-17 00:17:00,
2013-04-16 20:22:00,73.5,57.8,30.02,WNW,301,0.0,3.0,58,0.00,,---,0.00,VWS V13.01,2013-04-17 00:22:00,
2013-04-16 20:27:00,73.3,58.1,30.03,WNW,301,1.0,3.0,59,0.00,,---,0.00,VWS V13.01,2013-04-17 00:27:00,
2013-04-16 20:32:00,73.1,58.4,30.03,NNW,348,3.0,3.0,60,0.00,,---,0.00,VWS V13.01,2013-04-17 00:32:00,
2013-04-16 20:37:00,72.9,58.2,30.03,North,360,1.0,3.0,60,0.00,,---,0.00,VWS V13.01,2013-04-17 00:37:00,
2013-04-16 20:42:00,72.8,58.1,30.03,North,360,1.0,3.0,60,0.00,,---,0.00,VWS V13.01,2013-04-17 00:42:00,
2013-04-16 20:47:00,72.7,58.5,30.05,WNW,295,6.0,6.0,61,0.00,,---,0.00,VWS V13.01,2013-04-17 00:47:00,
2013-04-16 20:52:00,72.1,59.3,30.10,NW,312,10.0,21.0,64,0.00,,---,0.00,VWS V13.01,2013-04-17 00:52:00,
2013-04-16 20:57:00,66.6,58.1,30.12,NW,315,12.0,28.0,74,0.17,,---,0.17,VWS V13.01,2013-04-17 00:57:00,
2013-04-16 21:02:00,62.0,56.1,30.11,NNW,346,11.0,18.0,81,0.26,,---,0.27,VWS V13.01,2013-04-17 01:02:00,
2013-04-16 21:07:00,60.6,56.4,30.13,NNW,327,7.0,18.0,86,0.29,,---,0.29,VWS V13.01,2013-04-17 01:07:00,
2013-04-16 21:12:00,60.2,57.0,30.14,WNW,283,5.0,18.0,89,0.31,,---,0.31,VWS V13.01,2013-04-17 01:12:00,
2013-04-16 21:17:00,60.4,58.1,30.14,North,355,8.0,20.0,92,0.32,,---,0.32,VWS V13.01,2013-04-17 01:17:00,
2013-04-16 21:22:00,60.6,58.3,30.15,North,5,10.0,20.0,92,0.33,,---,0.33,VWS V13.01,2013-04-17 01:22:00,
2013-04-16 21:27:00,60.6,58.0,30.15,NE,54,7.0,20.0,91,0.34,,---,0.34,VWS V13.01,2013-04-17 01:27:00,
2013-04-16 21:32:00,60.4,57.8,30.15,North,360,4.0,12.0,91,0.35,,---,0.35,VWS V13.01,2013-04-17 01:32:00,
2013-04-16 21:37:00,60.2,57.9,30.16,North,355,10.0,12.0,92,0.37,,---,0.37,VWS V13.01,2013-04-17 01:37:00,
2013-04-16 21:42:00,59.9,57.6,30.16,NNE,16,4.0,13.0,92,0.39,,---,0.39,VWS V13.01,2013-04-17 01:42:00,
2013-04-16 21:47:00,59.7,57.4,30.17,NNE,25,3.0,13.0,92,0.40,,---,0.40,VWS V13.01,2013-04-17 01:47:00,
2013-04-16 21:52:00,59.4,57.1,30.18,North,355,4.0,13.0,92,0.41,,---,0.41,VWS V13.01,2013-04-17 01:52:00,
2013-04-16 21:57:00,59.2,56.9,30.19,ENE,60,1.0,13.0,92,0.42,,---,0.42,VWS V13.01,2013-04-17 01:57:00,
2013-04-16 22:02:00,59.1,56.8,30.19,NE,46,1.0,2.0,92,0.20,,---,0.43,VWS V13.01,2013-04-17 02:02:00,
2013-04-16 22:07:00,58.9,56.6,30.20,NE,46,0.0,2.0,92,0.21,,---,0.44,VWS V13.01,2013-04-17 02:07:00,
2013-04-16 22:12:00,58.9,56.6,30.20,NE,49,0.0,2.0,92,0.21,,---,0.44,VWS V13.01,2013-04-17 02:12:00,
2013-04-16 22:17:00,58.8,56.5,30.20,NE,49,0.0,2.0,92,0.22,,---,0.45,VWS V13.01,2013-04-17 02:17:00,
2013-04-16 22:22:00,58.7,56.7,30.19,NE,49,0.0,2.0,93,0.23,,---,0.46,VWS V13.01,2013-04-17 02:22:00,
2013-04-16 22:27:00,58.6,56.6,30.19,East,89,1.0,3.0,93,0.25,,---,0.48,VWS V13.01,2013-04-17 02:27:00,
2013-04-16 22:32:00,58.5,56.5,30.18,East,79,2.0,3.0,93,0.16,,---,0.51,VWS V13.01,2013-04-17 02:32:00,
2013-04-16 22:37:00,58.5,56.5,30.17,East,82,3.0,5.0,93,0.19,,---,0.54,VWS V13.01,2013-04-17 02:37:00,
2013-04-16 22:42:00,58.5,56.5,30.16,East,84,5.0,7.0,93,0.21,,---,0.56,VWS V13.01,2013-04-17 02:42:00,
2013-04-16 22:47:00,58.4,56.4,30.16,East,100,0.0,7.0,93,0.22,,---,0.57,VWS V13.01,2013-04-17 02:47:00,
2013-04-16 22:52:00,58.3,56.3,30.16,East,82,1.0,7.0,93,0.23,,---,0.58,VWS V13.01,2013-04-17 02:52:00,
2013-04-16 22:57:00,58.3,56.3,30.15,ENE,73,2.0,7.0,93,0.23,,---,0.58,VWS V13.01,2013-04-17 02:57:00,
2013-04-16 23:02:00,58.2,56.2,30.15,ENE,73,0.0,1.0,93,0.16,,---,0.58,VWS V13.01,2013-04-17 03:02:00,
2013-04-16 23:07:00,58.2,56.5,30.15,ENE,73,0.0,1.0,94,0.17,,---,0.59,VWS V13.01,2013-04-17 03:07:00,
2013-04-16 23:12:00,58.1,56.4,30.14,ENE,73,0.0,1.0,94,0.17,,---,0.59,VWS V13.01,2013-04-17 03:12:00,
2013-04-16 23:17:00,58.1,56.4,30.14,East,80,0.0,2.0,94,0.17,,---,0.59,VWS V13.01,2013-04-17 03:17:00,
2013-04-16 23:22:00,58.1,56.4,30.14,East,80,0.0,2.0,94,0.17,,---,0.59,VWS V13.01,2013-04-17 03:22:00,
2013-04-16 23:27:00,58.1,56.4,30.14,SSE,167,4.0,4.0,94,0.18,,---,0.60,VWS V13.01,2013-04-17 03:27:00,
2013-04-16 23:32:00,58.1,56.4,30.14,SSE,153,0.0,3.0,94,0.11,,---,0.60,VWS V13.01,2013-04-17 03:32:00,
2013-04-16 23:37:00,58.1,56.4,30.13,SSE,154,1.0,5.0,94,0.11,,---,0.60,VWS V13.01,2013-04-17 03:37:00,
2013-04-16 23:42:00,58.1,56.4,30.14,SSE,147,0.0,5.0,94,0.11,,---,0.60,VWS V13.01,2013-04-17 03:42:00,
2013-04-16 23:47:00,58.2,56.5,30.13,South,175,0.0,5.0,94,0.11,,---,0.60,VWS V13.01,2013-04-17 03:47:00,
2013-04-16 23:52:00,58.1,56.4,30.13,SSE,166,0.0,5.0,94,0.11,,---,0.60,VWS V13.01,2013-04-17 03:52:00,
2013-04-16 23:57:00,58.1,56.4,30.13,SE,129,0.0,5.0,94,0.11,,---,0.60,VWS V13.01,2013-04-17 03:57:00,